Location: Drionville
(50.6471°N, 2.0524°E)
Time: 13:24:14
(UTC+00:00)

Daily predictions for brighter satellites

Satellite Brightness Start Highest point End
(mag) Time Altitude Azimuth Time Altitude Azimuth Time Altitude Azimuth
NOSS 3-3 (A) 4.2 18:56:00 10° SSW 19:01:37 48° ESE 19:07:57 10° NE
NOSS 3-3 (C) 4.2 18:56:07 10° SSW 19:01:43 48° ESE 19:08:02 10° NE
Cosmos 2251 Rocket 3.7 18:57:36 10° S 19:02:49 54° ESE 19:08:04 10° NNE
Cosmos 2184 Rocket 4.2 18:58:53 10° N 19:05:05 53° ENE 19:11:10 10° SSE
ARGOS 3.2 19:00:10 10° SSE 19:05:29 63° ENE 19:10:48 10° N
Cosmos 1455 Rocket 4.4 19:01:29 10° SSW 19:05:40 46° WNW 19:09:56 10° N
ISS -1.6 19:03:09 10° W 19:05:48 22° SW 19:08:26 10° SSE
STARLINK-1240 4.0 19:02:21 10° W 19:06:28 64° N 19:10:36 10° ENE
MONITOR-E 4.0 19:04:34 10° SSE 19:07:07 49° ENE 19:09:43 10° N
STARLINK-1233 3.5 19:04:29 10° WNW 19:07:36 53° N 19:10:41 10° E
STARLINK-1212 3.5 19:04:57 10° WNW 19:08:02 53° N 19:11:07 10° E
STARLINK-1105 3.5 19:05:24 10° WNW 19:08:29 53° N 19:11:36 10° E
SJ-6B 3.2 19:04:54 10° SSE 19:08:54 52° ENE 19:12:57 10° N
STARLINK-1206 3.4 19:05:54 10° WNW 19:08:58 53° N 19:12:02 10° E
STARLINK-1247 3.4 19:06:21 10° WNW 19:09:25 53° N 19:12:30 10° E
STARLINK-1227 3.5 19:06:45 10° WNW 19:09:50 53° N 19:12:56 10° E
STARLINK-1218 3.4 19:07:15 10° WNW 19:10:20 53° N 19:13:24 10° E
STARLINK-1226 3.4 19:07:41 10° WNW 19:10:46 53° N 19:13:50 10° E
Cosmos 1626 Rocket 4.3 19:06:46 10° NNW 19:11:06 58° W 19:15:21 10° S
STARLINK-1254 3.4 19:08:06 10° WNW 19:11:12 53° N 19:14:18 10° E
STARLINK-1216 4.0 19:07:21 10° W 19:11:28 63° N 19:15:36 10° ENE
STARLINK-1215 3.4 19:08:36 10° WNW 19:11:40 53° N 19:14:44 10° E
Meteor 2-10 4.4 19:06:48 10° SSE 19:12:01 48° E 19:17:25 10° NNE
STARLINK-1231 3.4 19:09:03 10° WNW 19:12:08 53° N 19:15:12 10° E
STARLINK-67 2.7 19:09:37 10° WNW 19:12:10 57° NNE 19:14:43 10° E
STARLINK-1232 3.4 19:09:58 10° WNW 19:13:02 53° N 19:16:06 10° E
STARLINK-1217 3.4 19:10:24 10° WNW 19:13:29 53° N 19:16:34 10° E
USA 186 1.7 19:10:32 10° SSE 19:13:52 73° ENE 19:17:03 10° N
STARLINK-1208 3.4 19:10:49 10° WNW 19:13:54 53° N 19:17:01 10° E
STARLINK-1229 3.4 19:11:17 10° WNW 19:14:22 53° N 19:17:26 10° E
STARLINK-1271 3.4 19:11:45 10° WNW 19:14:50 53° N 19:17:55 10° E
STARLINK-1234 3.3 19:11:54 10° WNW 19:14:53 55° N 19:17:54 10° E
STARLINK-1270 3.4 19:12:13 10° WNW 19:15:17 53° N 19:18:22 10° E
STARLINK-1154 3.4 19:12:39 10° WNW 19:15:44 53° N 19:18:48 10° E
STARLINK-1237 4.0 19:12:20 10° W 19:16:27 62° N 19:20:34 10° ENE
STARLINK-1197 3.4 19:13:33 10° WNW 19:16:38 54° N 19:19:43 10° E
STARLINK-1189 3.4 19:14:01 10° WNW 19:17:05 54° N 19:20:10 10° E
STARLINK-1198 3.4 19:14:28 10° WNW 19:17:32 54° N 19:20:37 10° E
STARLINK-1209 3.2 19:14:48 10° WNW 19:17:45 56° N 19:20:37 10° E
STARLINK-1188 3.4 19:14:55 10° WNW 19:18:00 54° N 19:21:04 10° E
IRIDIUM 104 4.3 19:13:02 10° N 19:18:17 69° E 19:23:29 10° SSE
STARLINK-1235 3.3 19:15:34 10° WNW 19:18:42 57° N 19:21:46 10° E
STARLINK-1187 3.4 19:15:59 10° WNW 19:19:06 55° N 19:22:13 10° E
Cosmos 1603 3.7 19:14:09 10° S 19:19:39 59° ESE 19:25:10 10° NE
STARLINK-1199 3.4 19:16:52 10° WNW 19:19:58 54° N 19:23:03 10° E
STARLINK-1191 3.4 19:17:19 10° WNW 19:20:25 54° N 19:23:29 10° E
FREGAT/IRIS 2.3 19:18:00 10° SSE 19:20:43 85° W 19:23:28 10° NNW
STARLINK-1210 3.4 19:17:46 10° WNW 19:20:52 54° N 19:23:55 10° E
STARLINK-1221 3.4 19:18:13 10° WNW 19:21:19 55° N 19:24:21 10° E
STARLINK-1202 4.0 19:17:19 10° W 19:21:26 62° N 19:25:33 10° ENE
Cosmos 2058 Rocket 4.4 19:18:08 10° SE 19:21:34 22° E 19:25:01 10° NE
STARLINK-1219 3.4 19:18:40 10° WNW 19:21:46 55° N 19:24:47 11° E
Cosmos 1602 Rocket 4.3 19:17:23 10° NNW 19:21:46 58° W 19:26:05 10° S
MOS 1 Rocket 4.5 19:17:32 10° NNE 19:22:10 29° E 19:26:50 10° SSE
STARLINK-1222 3.4 19:19:07 10° WNW 19:22:13 55° N 19:25:13 11° E
Ariane Rocket 3.3 19:17:37 10° S 19:22:40 72° WSW 19:27:45 10° NNW
STARLINK-1211 3.4 19:19:35 10° WNW 19:22:41 55° N 19:25:39 11° E
ATLAS 2AS CENTAUR R/B 3.0 19:15:14 10° NW 19:23:00 72° NE 19:29:59 11° SE
Cosmos 1758 4.0 19:19:00 10° SSW 19:23:03 62° WNW 19:27:08 10° N
STARLINK-1214 3.4 19:20:01 10° WNW 19:23:08 55° N 19:26:05 11° E
STARLINK-1245 3.4 19:20:31 10° WNW 19:23:35 55° N 19:26:30 11° E
STARLINK-1238 3.4 19:20:55 10° WNW 19:24:02 55° N 19:26:57 11° E
Meteor 1-21 Rocket 4.3 19:18:36 10° NNW 19:24:11 81° W 19:29:43 10° S
USA 234 4.3 19:19:47 10° ENE 19:24:39 22° SE 19:29:30 10° S
STARLINK-1205 3.4 19:21:51 10° WNW 19:24:56 55° N 19:27:48 12° E
STARLINK-1204 3.3 19:22:19 10° WNW 19:25:24 55° N 19:28:14 12° E
STARLINK-1203 4.0 19:21:31 10° W 19:25:40 61° N 19:29:50 10° E
Resurs 01 Rocket 2.5 19:21:46 10° SE 19:25:41 32° ENE 19:29:37 10° N
MOS 1 4.4 19:21:26 10° SSE 19:27:06 87° WSW 19:32:49 10° NNW
Cosmos 2154 Rocket 4.3 19:21:06 10° N 19:27:19 51° ENE 19:33:28 10° SSE
IRIDIUM 114 4.3 19:22:11 10° N 19:27:27 82° E 19:32:40 10° S
Meteor 1-16 Rocket 4.2 19:24:08 10° S 19:29:23 55° E 19:34:50 10° NNE
SeaSat 1 3.2 19:25:34 10° NNE 19:30:26 58° NW 19:35:16 10° SW
STARLINK-1246 4.0 19:27:18 10° W 19:31:25 61° N 19:35:30 10° E
SL-4 R/B 2.7 19:28:56 10° SSW 19:31:44 24° SE 19:33:43 15° E
Nadezhda 1 Rocket 4.3 19:26:23 10° SSE 19:32:26 47° E 19:38:28 10° NNE
Aureole 3 4.2 19:28:13 10° SSW 19:32:59 83° W 19:39:10 10° N
STARLINK-1201 3.4 19:30:28 10° WNW 19:33:43 58° N 19:36:24 14° E
Cosmos 1726 Rocket 4.0 19:30:37 10° SSE 19:34:45 41° E 19:38:56 10° NNE
STARLINK-1224 4.0 19:32:18 10° W 19:36:25 61° N 19:40:17 12° E
Cosmos 1340 Rocket 3.9 19:33:09 10° SSE 19:36:30 25° E 19:39:52 10° NE
IRIDIUM 103 4.4 19:31:22 10° N 19:36:38 85° W 19:41:51 10° S
ATLAS 5 CENTAUR R/B 2.9 19:34:58 10° SSE 19:37:48 18° ESE 19:40:49 10° ENE
Cosmos 1825 Rocket 3.5 19:34:26 10° N 19:38:52 87° ENE 19:43:14 10° S
Cosmos 1328 3.8 19:34:55 10° N 19:38:55 63° ENE 19:42:54 10° SSE
STARLINK-1225 4.0 19:37:18 10° W 19:41:26 61° N 19:45:05 13° E
Cosmos 1703 3.2 19:40:22 10° N 19:44:20 75° E 19:48:18 10° SSE
Meteor 2-17 Rocket 4.5 19:38:22 10° N 19:44:30 66° ENE 19:50:37 10° SSE
STARLINK-1230 4.0 19:42:18 10° W 19:46:25 61° N 19:49:51 14° E
Cosmos 1943 Rocket 3.9 19:43:46 10° NW 19:48:37 32° WSW 19:53:28 10° SSW
Cosmos 614 Rocket 4.2 19:44:10 10° S 19:49:08 46° ESE 19:54:06 10° NE
Cosmos 2369 Rocket 3.5 19:45:22 10° NW 19:50:39 40° WSW 19:55:52 10° S
Abrixas rocket 2.1 19:48:03 10° W 19:50:58 55° S 19:52:19 27° ESE
Cosmos 1300 4.0 19:50:48 20° E 19:51:22 20° E 19:54:13 10° NE
STARLINK-1243 4.0 19:47:16 10° WNW 19:51:23 62° N 19:54:37 16° E
Cosmos 1758 Rocket 4.1 19:47:20 10° NNW 19:51:38 60° W 19:55:52 10° S
Cosmos 2074 Rocket 4.2 19:45:28 10° NNW 19:51:45 75° W 19:58:02 10° S
SPOT 3 Rocket 3.6 19:46:55 10° SSE 19:52:09 89° W 19:57:24 10° NNW
COSMOS 2455 3.1 19:46:24 10° NNW 19:52:22 55° NE 19:56:39 19° ESE
SL-24 R/B 3.8 19:48:50 10° NNE 19:53:06 64° E 19:56:54 10° S
Cosmos 1437 3.9 19:51:12 10° NNW 19:54:05 40° W 19:56:56 10° SSW
Cosmos 921 Rocket 3.3 19:50:48 10° N 19:54:51 45° ENE 19:57:12 22° SE
CZ-2C R/B 3.7 19:50:13 10° NNE 19:54:58 69° ESE 19:59:36 10° S
STARLINK-1236 3.9 19:52:17 10° WNW 19:56:24 62° N 19:59:25 18° E
Cosmos 1953 3.4 19:54:58 10° SSW 19:58:48 46° WNW 20:02:41 10° N
Cosmos 1953 Rocket 3.6 19:54:44 10° N 19:59:14 86° W 20:03:43 10° S
Cosmos 407 Rocket 3.6 19:55:33 10° S 20:00:28 48° ESE 20:05:24 10° NNE
Cosmos 2228 2.9 19:56:44 10° S 20:01:02 85° E 20:05:24 10° NNE
Cosmos 1606 Rocket 3.6 19:59:13 10° S 20:03:39 86° W 20:08:10 10° N
Cosmos 1908 3.1 20:00:21 10° S 20:04:12 78° E 20:08:06 10° NNE
STARLINK-1269 3.9 20:02:16 10° WNW 20:06:24 64° N 20:09:00 22° E
Cosmos 1818 3.5 20:02:48 10° SSW 20:08:14 79° SE 20:13:43 10° NE
ATLAS CENTAUR R/B 3.7 20:06:21 10° NNW 20:08:34 14° NNE 20:10:43 10° NE
ERBS 3.5 20:05:39 10° NW 20:08:47 34° NNE 20:10:29 21° ENE
ERS-1 Rocket 4.1 20:07:39 21° E 20:09:40 27° ENE 20:13:51 10° N
STARLINK-1200 3.9 20:07:16 10° WNW 20:11:24 65° N 20:13:47 24° E
Meteor 1-11 4.3 20:08:12 10° NNW 20:13:59 81° W 20:19:34 11° S
STARLINK-1192 3.8 20:12:14 10° WNW 20:16:22 66° N 20:18:33 26° E
SPOT 1/Viking Rocket 4.2 20:14:31 25° ESE 20:16:49 38° ENE 20:21:38 10° N
Cosmos 1461 3.1 20:12:59 10° NW 20:17:31 86° SW 20:19:51 29° SE
Cosmos 1943 3.5 20:12:08 10° SW 20:17:46 71° WNW 20:23:29 10° NNE
MetOp-B 4.2 20:15:08 23° SE 20:18:28 64° ENE 20:23:47 10° N
STARLINK-1244 3.8 20:17:14 10° WNW 20:21:22 67° N 20:23:21 29° E
Cosmos 1954 Rocket 4.4 20:21:03 23° SSE 20:23:40 38° ESE 20:28:29 10° NE
SAR-Lupe-2 3.7 20:22:45 10° NNE 20:26:15 48° E 20:26:38 46° ESE
STARLINK-1138 3.8 20:22:12 10° WNW 20:26:21 69° N 20:28:06 33° E
H-2A R/B 4.1 20:25:11 10° SSW 20:29:26 25° W 20:33:38 10° NW
CZ-4C R/B 3.9 20:25:23 10° NW 20:31:13 33° NNE 20:37:07 13° E
STARLINK-1143 3.7 20:27:10 10° WNW 20:31:19 70° NNE 20:32:52 36° E
STARLINK-1228 2.7 20:28:48 10° WNW 20:31:34 68° SW 20:31:34 68° SW
Cosmos 1023 Rocket 4.4 20:27:09 10° S 20:32:17 66° ESE 20:37:24 10° NNE
Cosmos 1697 Rocket 4.1 20:28:14 10° NNW 20:32:55 25° NE 20:35:27 19° ENE
Cosmos 1076 Rocket 3.9 20:30:19 10° N 20:34:24 42° ENE 20:35:03 39° E
STARLINK-1241 3.7 20:32:11 10° WNW 20:36:20 72° NNE 20:37:41 41° E
SPOT 5 3.5 20:36:47 31° E 20:37:22 32° ENE 20:41:14 10° N
CZ-2C R/B 2.6 20:32:38 10° NNE 20:37:50 82° WNW 20:43:01 10° SSW
STARLINK-1239 3.7 20:37:10 10° WNW 20:41:19 74° NNE 20:42:27 46° E
NOSS 3-4 (A) 4.3 20:34:43 10° NW 20:41:30 55° SW 20:46:22 22° SSE
NOSS 3-4 (C) 4.3 20:34:50 10° NW 20:41:37 56° SW 20:46:27 23° SSE
Iridium 2 3.8 20:42:00 52° E 20:42:00 52° E 20:45:42 10° NNE
Cosmos 2341 Rocket 4.0 20:35:47 10° N 20:42:12 85° W 20:46:40 21° S
STARLINK-1233 2.9 20:40:23 10° WNW 20:43:20 71° WSW 20:43:20 71° WSW
Cosmos 2058 3.1 20:39:58 10° N 20:43:58 50° ENE 20:44:18 48° E
STARLINK-1212 3.0 20:40:50 10° WNW 20:43:45 70° WSW 20:43:45 70° WSW
STARLINK-1105 3.0 20:41:16 10° WNW 20:44:12 69° WSW 20:44:12 69° WSW
Aureole 1 Rocket 4.2 20:37:01 10° SSW 20:44:34 80° WNW 20:50:26 10° NNE
STARLINK-1206 3.0 20:41:47 10° WNW 20:44:37 67° WSW 20:44:37 67° WSW
STARLINK-1247 3.1 20:42:14 10° WNW 20:45:03 66° WSW 20:45:03 66° WSW
STARLINK-1227 3.1 20:42:38 10° WNW 20:45:29 66° WSW 20:45:29 66° WSW
STARLINK-67 4.4 20:43:38 10° W 20:45:06 25° WSW 20:45:06 25° WSW
STARLINK-1218 3.1 20:43:09 10° WNW 20:45:55 64° WSW 20:45:55 64° WSW
STARLINK-1240 3.6 20:42:09 10° WNW 20:46:19 76° NNE 20:47:15 52° E
STARLINK-1226 3.1 20:43:34 10° WNW 20:46:21 64° WSW 20:46:21 64° WSW
STARLINK-1254 3.1 20:43:59 10° WNW 20:46:47 64° WSW 20:46:47 64° WSW
STARLINK-1215 3.2 20:44:29 10° WNW 20:47:13 61° WSW 20:47:13 61° WSW
STARLINK-1231 3.2 20:44:56 10° WNW 20:47:39 60° WSW 20:47:39 60° WSW
Cosmos 1763 Rocket 4.0 20:43:20 10° NNW 20:48:21 44° ENE 20:49:35 37° E
STARLINK-1232 3.3 20:45:50 10° WNW 20:48:31 58° W 20:48:31 58° W
STARLINK-1217 3.3 20:46:17 10° WNW 20:48:57 58° W 20:48:57 58° W
STARLINK-1208 3.3 20:46:42 10° WNW 20:49:24 58° WSW 20:49:24 58° WSW
STARLINK-1229 3.3 20:47:10 10° WNW 20:49:48 56° W 20:49:48 56° W
STARLINK-1234 3.7 20:47:29 10° WNW 20:49:52 44° WSW 20:49:52 44° WSW
STARLINK-1271 3.4 20:47:38 10° WNW 20:50:15 55° W 20:50:15 55° W
STARLINK-1270 3.4 20:48:06 10° WNW 20:50:41 54° W 20:50:41 54° W
STARLINK-1216 3.6 20:47:09 10° WNW 20:51:19 79° NNE 20:52:02 59° E
STARLINK-1154 3.4 20:48:31 10° WNW 20:51:06 53° W 20:51:06 53° W
STARLINK-1197 3.5 20:49:26 10° WNW 20:51:59 52° W 20:51:59 52° W
Cosmos 1408 4.1 20:49:45 10° N 20:52:05 25° NE 20:52:05 25° NE
STARLINK-1189 3.5 20:49:54 10° WNW 20:52:25 51° W 20:52:25 51° W
STARLINK-1209 4.0 20:50:15 10° WNW 20:52:23 37° WSW 20:52:23 37° WSW
STARLINK-1198 3.5 20:50:20 10° WNW 20:52:50 50° W 20:52:50 50° W
STARLINK-1188 3.6 20:50:47 10° WNW 20:53:17 50° W 20:53:17 50° W
STARLINK-1235 3.8 20:51:27 10° WNW 20:53:55 44° WSW 20:53:55 44° WSW
STARLINK-1187 3.7 20:51:52 10° WNW 20:54:21 47° WSW 20:54:21 47° WSW
Terra 2.5 20:55:02 36° E 20:55:32 37° ENE 20:59:56 10° N
STARLINK-1199 3.7 20:52:44 10° WNW 20:55:12 48° W 20:55:12 48° W
RESURS DK-1 3.6 20:52:26 10° NNW 20:56:05 28° NE 20:56:27 28° NE
STARLINK-1237 3.5 20:52:07 10° WNW 20:56:17 82° NNE 20:56:48 66° E
STARLINK-1191 3.7 20:53:11 10° WNW 20:55:38 47° W 20:55:38 47° W
STARLINK-1210 3.7 20:53:38 10° WNW 20:56:04 46° W 20:56:04 46° W
STARLINK-1221 3.8 20:54:06 10° WNW 20:56:30 46° W 20:56:30 46° W
Cosmos 1174 4.2 20:53:25 10° NNW 20:57:19 61° NE 20:57:56 54° E
STARLINK-1219 3.8 20:54:32 10° WNW 20:56:56 45° W 20:56:56 45° W
STARLINK-1222 3.8 20:55:00 10° WNW 20:57:22 44° W 20:57:22 44° W
STARLINK-1211 3.8 20:55:27 10° WNW 20:57:48 44° W 20:57:48 44° W
STARLINK-1214 3.9 20:55:54 10° WNW 20:58:14 43° W 20:58:14 43° W
Cosmos 2058 Rocket 4.1 20:54:54 10° SSW 20:59:15 47° WNW 21:03:39 10° N
STARLINK-1245 3.9 20:56:23 10° WNW 20:58:39 41° W 20:58:39 41° W
Cosmos 2218 Rocket 3.9 20:53:29 10° N 20:59:44 83° E 21:02:26 37° SSE
STARLINK-1238 3.9 20:56:48 10° WNW 20:59:06 42° W 20:59:06 42° W
Cosmos 192 4.3 20:55:09 10° NNW 21:00:07 73° ENE 21:01:06 55° SE
MOS 1 Rocket 4.4 20:55:27 10° N 21:00:36 52° WNW 21:05:52 10° SW
STARLINK-1205 4.0 20:57:43 10° WNW 20:59:56 40° W 20:59:56 40° W
Cosmos 1980 Rocket 3.7 20:56:39 10° NNW 21:01:09 24° NE 21:03:11 20° ENE
STARLINK-1202 3.5 20:57:05 10° WNW 21:01:15 84° NNE 21:01:35 74° E
STARLINK-1204 4.0 20:58:11 10° WNW 21:00:23 39° W 21:00:23 39° W
Cosmos 1455 4.3 21:03:40 17° NE 21:03:40 17° NE 21:04:49 10° NNE
Resurs 01 Rocket 3.1 20:59:16 16° SSW 21:02:09 33° W 21:06:11 10° NNW
Cosmos 1892 2.9 20:58:19 10° N 21:01:53 58° NE 21:01:53 58° NE
Cosmos 540 Rocket 4.4 20:58:55 10° N 21:03:35 33° NE 21:04:25 31° ENE
STARLINK-1203 3.5 21:01:28 10° WNW 21:05:41 89° SSE 21:05:50 83° ESE
USA 234 3.1 21:02:00 10° ENE 21:08:31 66° SE 21:15:01 10° SW
Okean 3 Rocket 4.4 21:04:29 10° N 21:08:14 37° ENE 21:08:14 37° ENE
Cosmos 1656 3.9 21:03:44 10° NNW 21:09:23 58° NE 21:10:37 47° ESE
STARLINK-1201 4.3 21:06:47 10° WNW 21:08:57 36° W 21:08:57 36° W
CARTOSAT-1 3.5 21:10:07 67° E 21:10:11 67° ENE 21:14:31 10° N
Iridium 4 Rocket 2.8 21:06:14 10° N 21:10:31 87° E 21:10:42 82° SSE
SL-4 R/B 3.0 21:07:31 10° WSW 21:09:22 30° WSW 21:09:22 30° WSW
STARLINK-1246 3.5 21:07:03 10° WNW 21:11:09 87° W 21:11:09 87° W
Cosmos 1340 Rocket 4.5 21:09:08 10° SW 21:12:51 33° WNW 21:16:33 10° N
ATLAS 2AS CENTAUR R/B 3.9 21:06:50 10° NW 21:13:30 35° WSW 21:17:26 20° SSW
Cosmos 1140 Rocket 3.9 21:08:36 10° SW 21:13:44 63° WNW 21:18:53 10° NNE
Spot 2 Rocket 4.0 21:11:43 33° SSW 21:13:49 55° W 21:18:51 10° NNW
STARLINK-1224 3.6 21:12:02 10° WNW 21:15:55 77° W 21:15:55 77° W
Cosmos 2181 Rocket 4.0 21:12:14 24° SSW 21:16:14 82° W 21:22:28 10° N
Cosmos 1825 3.6 21:14:09 10° N 21:16:32 29° NE 21:16:32 29° NE
SL-8 Rocket 4.3 21:13:56 10° NNW 21:20:09 63° W 21:23:20 30° SSW
Cosmos 1766 Rocket 4.4 21:16:19 10° N 21:20:00 39° NE 21:20:00 39° NE
STARLINK-1225 3.8 21:17:02 10° WNW 21:20:43 69° W 21:20:43 69° W
ATLAS 5 CENTAUR R/B 1.7 21:17:28 10° SW 21:21:43 75° NW 21:26:35 10° NE
Cosmos 841 Rocket 3.9 21:18:39 10° NNW 21:23:48 49° ENE 21:24:13 48° ENE
STARLINK-1230 4.0 21:22:00 10° WNW 21:25:30 61° W 21:25:30 61° W
Cosmos 1300 4.0 21:25:41 30° WSW 21:26:47 37° WNW 21:30:23 10° N
Cosmos 1570 Rocket 4.0 21:24:06 10° NNW 21:29:28 64° ENE 21:29:51 62° E
IGS 5A 4.2 21:29:44 45° WSW 21:30:04 46° W 21:34:07 10° NNW
Cosmos 2082 Rocket 4.4 21:33:29 11° ENE 21:33:29 11° ENE 21:33:53 10° ENE
STARLINK-1243 4.2 21:26:58 10° WNW 21:30:16 54° W 21:30:16 54° W
Cosmos 2366 rocket 4.2 21:25:44 10° NNW 21:31:49 64° W 21:34:06 38° SSW
Meteor 2-12 Rocket 4.4 21:25:55 10° NNW 21:32:03 78° W 21:33:43 50° S
Mayak 0.9 21:29:21 10° NNE 21:30:35 17° NE 21:30:35 17° NE
Cosmos 468 Rocket 3.9 21:28:09 10° NNW 21:33:21 75° WSW 21:33:48 69° SSW
Cosmos 1812 Rocket 3.7 21:33:49 66° W 21:33:57 66° WNW 21:38:17 10° N
STARLINK-1236 4.4 21:31:58 10° WNW 21:35:04 48° W 21:35:04 48° W
COSMOS 2455 3.9 21:32:41 10° NW 21:38:07 36° WSW 21:39:49 30° SW
ASTEX 1 4.0 21:39:12 43° NE 21:39:12 43° NE 21:43:21 10° N
COSMOS 2406 3.8 21:45:30 42° ENE 21:45:30 42° ENE 21:49:36 10° NE
Nadezhda 3 Rocket 4.0 21:43:48 60° ESE 21:44:06 60° E 21:50:18 10° NNE
Cosmos 1833 Rocket 4.2 21:47:50 23° ENE 21:47:50 23° ENE 21:50:17 10° NE
ERS-1 Rocket 3.4 21:47:39 50° SW 21:48:12 52° W 21:53:08 10° NNW
ATLAS CENTAUR R/B 2.7 21:44:48 10° NNW 21:47:36 33° N 21:47:36 33° N
Cosmos 2369 3.6 22:00:12 10° NNW 22:05:45 82° NNE 22:05:45 82° NNE
Cosmos 2208 Rocket 4.1 22:01:24 10° NNW 22:06:09 72° NW 22:06:09 72° NW
Cosmos 1741 Rocket 4.1 22:07:29 76° NNW 22:07:29 76° NNW 22:12:34 10° NNE
Cosmos 2151 4.1 22:05:44 10° NNW 22:08:48 40° NW 22:08:48 40° NW
Cosmos 2239 Rocket 4.3 22:04:43 10° N 22:10:58 85° W 22:11:22 79° SSW
Meteor 2-10 Rocket 3.6 22:12:36 73° NW 22:12:36 73° NW 22:17:42 10° N
Cosmos 1821 Rocket 4.0 22:07:32 10° NNW 22:13:54 73° W 22:14:33 67° SW
SPOT 5 4.1 22:16:00 31° W 22:16:00 31° W 22:19:23 10° NNW
Cosmos 1697 Rocket 2.7 22:11:52 10° NNW 22:17:11 76° WNW 22:17:11 76° WNW
CZ-4C R/B 2.9 22:13:57 10° NW 22:20:53 72° NE 22:22:17 59° E
Cosmos 1934 Rocket 3.8 22:16:05 10° N 22:22:23 85° ENE 22:22:23 85° ENE
Meteor 2-3 Rocket 3.8 22:21:24 10° NNW 22:26:44 76° NNW 22:26:44 76° NNW
SL-16 R/B 3.4 22:26:48 10° NNW 22:31:54 32° NE 22:32:21 32° NE
Cosmos 1605 Rocket 4.0 22:26:49 10° N 22:32:34 68° NE 22:32:34 68° NE
Terra 3.2 22:33:54 31° W 22:33:54 31° W 22:37:38 10° NNW
RESURS DK-1 4.4 22:30:20 10° NW 22:32:20 25° WNW 22:32:20 25° WNW
Cosmos 2360 Rocket 4.1 22:33:37 10° NNW 22:37:50 21° NE 22:39:34 18° ENE
Cosmos 2322 Rocket 3.4 22:36:42 10° NNW 22:41:46 32° NE 22:42:08 32° NE
Cosmos 1980 Rocket 2.5 22:40:15 10° NNW 22:44:56 63° NNW 22:44:56 63° NNW
ALOS 2 4.2 22:51:07 31° N 22:51:07 31° N 22:53:35 10° N
USA 234 3.6 22:45:07 10° ENE 22:51:34 64° NNW 22:58:01 10° W
ATLAS 5 CENTAUR R/B 3.9 23:03:24 10° WNW 23:07:11 25° NNW 23:11:26 10° NE
Mayak 0.8 23:04:52 10° N 23:07:09 25° NNW 23:07:09 25° NNW
BREEZE M DEB (TANK) 4.5 23:03:27 10° W 23:09:13 85° S 23:33:48 10° E
Cosmos 2082 Rocket 2.9 23:15:18 48° NNE 23:15:18 48° NNE 23:19:20 10° NNE
Cosmos 2344 4.3 23:06:28 10° NW 23:15:52 78° SW 23:18:38 58° SSE
COSMOS 2406 4.5 23:27:30 33° WNW 23:28:36 35° NW 23:33:51 10° NNE
Cosmos 1833 Rocket 3.4 23:29:28 49° NW 23:29:28 49° NW 23:34:33 10° NNE
Cosmos 2219 Rocket 4.3 23:33:25 10° NNW 23:37:42 22° NE 23:40:10 16° ENE
Cosmos 1607 4.4 23:48:19 54° NE 23:48:19 54° NE 23:53:05 10° NE
Cosmos 1459 Rocket 4.2 23:42:12 10° N 23:47:45 69° NNW 23:47:45 69° NNW
Cosmos 1727 Rocket 4.3 23:51:23 62° NW 23:51:23 62° NW 23:57:02 10° N
